Location: Ocean City
(38.3360°N, 75.0850°W)
Time: 04:51:06
(UTC-05:00)

Explorer 11/Cluster Stage 4 - Pass Details

Date: 20 November 2019
Orbit: 467 x 1259 km, 28.8° (Epoch: 08 December)

Event Time Altitude Azimuth Distance (km) Brightness Sun altitude
Rises 01:19:53 0° 259° (W) 3,972 - -62.4°
Reaches altitude 10° 01:24:15 10° 236° (WSW) 3,125 - -61.7°
Maximum altitude 01:28:01 14° 208° (SSW) 2,881 - -61.0°
Drops below altitude 10° 01:31:53 10° 179° (S) 3,221 - -60.4°
Sets 01:36:33 0° 157° (SSE) 4,181 - -59.6°
